Voltar ao catálogo

ANISCSAT-1

AtivoRádio AmadorSSO
NORAD 66671·PAYLOAD·🇭🇺 Hungary

Lançado Nov 28, 2025 de Vandenberg Space Force Base

Loading…

Próximas Passagens (próximas 24 horas)

TLE

AtualizadoSource: Space-Track

Época: Sep 13, 2026, 17:17 UTC

1 66671U 25276F   26256.72034377  .00007227  00000-0  30857-3 0  9996
2 66671  97.4136 329.3308 0006607  59.2602 300.9285 15.23166854 43903

Acompanhe ANISCSAT-1 em tempo real com AllMySat

Download on the App Store